Location: Unspecified
(39.8013°N, 0.0000°E)
Time: 03:58:36
(UTC+00:00)

Cosmos 1275 Rocket - Visible Passes

Search period start: 05 April 2026 00:00
Search period end: 15 April 2026 00:00
Orbit: 780 x 793 km, 82.9° (Epoch: 28 March)

Date Brightness Start Highest point End Pass type
(mag) Time Alt. Az. Time Alt. Az. Time Alt. Az.
5 Apr 6.8 03:20:41 10° NNE 03:25:12 27° ENE 03:29:41 10° SE visible
5 Apr 5.4 05:01:48 10° NNW 05:06:31 33° W 05:11:14 10° SSW visible
6 Apr 7.5 02:50:31 10° NNE 02:53:54 17° ENE 02:57:16 10° ESE visible
6 Apr 4.8 04:30:25 10° NNW 04:35:38 56° W 04:40:48 10° S visible
7 Apr 4.8 03:59:17 10° N 04:04:38 86° E 04:09:56 10° S visible
8 Apr 5.6 03:28:21 10° N 03:33:32 51° E 03:38:40 10° SSE visible
9 Apr 6.5 02:57:38 10° NNE 03:02:20 31° ENE 03:06:59 10° SE visible
9 Apr 5.6 04:39:00 10° NNW 04:43:34 29° W 04:48:06 10° SSW visible
10 Apr 7.2 02:27:19 10° NNE 02:31:01 19° ENE 02:34:43 10° ESE visible
10 Apr 4.9 04:07:32 10° NNW 04:12:39 50° W 04:17:44 10° SSW visible
11 Apr 7.7 01:58:03 10° NE 01:59:36 11° ENE 02:01:07 10° E visible
11 Apr 4.6 03:36:18 10° N 03:41:39 84° W 03:46:56 10° S visible
12 Apr 5.3 03:05:17 10° N 03:10:32 58° E 03:15:18 12° SSE visible
12 Apr 6.3 04:48:14 10° NW 04:51:17 16° W 04:54:20 10° WSW visible
13 Apr 6.2 02:34:29 10° N 02:39:20 34° ENE 02:43:16 14° SE visible
13 Apr 5.7 04:16:07 10° NNW 04:20:28 26° W 04:23:50 14° SW visible
14 Apr 7.0 02:04:01 10° NNE 02:08:00 21° ENE 02:11:27 12° ESE visible
14 Apr 5.1 03:44:31 10° NNW 03:49:32 44° W 03:52:03 26° SW visible
